Weather in Kushnarenkovo

Russia / Republic of Bashkortostan     55°06′17″N   55°21′14″E
temp.,
°C
wind,
m/s
gust,
m/s
humid.,
%
clouds,
%
prec.,
mm/h
press.,
hPa
HPBL,
m
2 march, tue
tue223:00−20wsw339736 0.0 101930
02:00−21sw34960 0.0 101845
05:00−22ssw47960 0.0 1016103
08:00−19s6109267 0.0 1013249
11:00−15s7129383 0.0 1011397
14:00−10ssw81493100 0.9 1006664
17:00−8ssw81494100 2.1 1004707
20:00−7ssw81594100 1.4 1002673
3 march, wed
wed323:00−5ssw81592100 2.4 1000628
02:00−3sw71491100 0.1 998463
05:00−4wsw5109486 0.1 998289
08:00−3wsw4109395 0.0 998538
11:00−4wsw599191 0.1 1000430
14:00−3wsw479286 0.1 1000500
17:00−3wsw588993 0.4 1000655
20:00−4wsw51090100 0.1 1001417
4 march, thu
thu423:00−6wsw5109499 0.1 1002332
02:00−6w5119598 0.3 1002472
05:00−9wnw6119299 0.4 1003412
08:00−13w5109575 0.0 1005205
11:00−10wsw599366 0.0 1006286
14:00−7sw6109189 0.0 1006453
17:00−5sw6118994 0.1 1005588
20:00−7sw71392100 0.1 1004539
5 march, fri
fri523:00−6ssw91691100 0.6 1002748
02:00−3sw91889100 0.9 999962
05:00−1sw101886100 0.9 9971018
08:00−2sw101793100 0.1 998984
11:00−1wsw101689100 0.4 1000976
14:00−1w61089100 0.4 1002797
17:00−2w41081100 0.5 1005654
20:00−4w3788100 0.0 1006189
6 march, sat
sat623:00−8wnw3592100 0.0 100987
02:00−12wnw3395100 0.0 101039
05:00−12wnw1194100 0.0 101121
08:00−11ese2295100 0.0 100972
11:00−8e5795100 1.3 1005244
14:00−3se5997100 2.8 1000348
17:00+1sw91598100 4.1 997918
20:00−2wnw81297100 1.5 997545